This demonstration page uses our WeatherBlox Daily Observations layout. Learn more.

Left ArrowRight Arrow

Hourly Observations for July 17, 2015

Temp ( °F °C ) Dew Point ( °F °C ) Humidity (%) Winds ( mph kmh ) Pressure ( in mb ) Visibility ( mi km ) Precip ( " mm )
12:53 am 00:53 Clear 74 23.3 67 19.4 79 79 N N/A 29.95 1014 10 16 N/A
1:53 am 01:53 Mostly Clear 70 21.1 68 20 93 93 N N/A 29.96 1015 10 16 N/A
2:53 am 02:53 Clear 69 20.6 67 19.4 93 93 N N/A 29.96 1014 9 14 N/A
3:53 am 03:53 Clear with Mist and Fog 67 19.4 66 18.9 97 97 N N/A 29.95 1014 6 10 N/A
4:53 am 04:53 Clear 70 21.1 66 18.9 87 87 VRB 3 6 29.93 1013 10 16 N/A
5:53 am 05:53 Clear 70 21.1 66 18.9 87 87 N N/A 29.93 1014 9 14 N/A
6:53 am 06:53 Mostly Sunny 71 21.7 66 18.9 84 84 N N/A 29.94 1014 9 14 N/A
7:53 am 07:53 Partly Cloudy 73 22.8 67 19.4 81 81 VRB 3 6 29.94 1014 9 14 N/A
8:53 am 08:53 Mostly Cloudy 76 24.4 69 20.6 79 79 N N/A 29.94 1014 10 16 N/A
9:41 am 09:41 Mostly Cloudy 79 26.1 70 21.1 74 74 S 3 6 29.91 1013 10 16 N/A
9:53 am 09:53 Cloudy 80 26.7 70 21.1 71 71 SSW 3 6 29.93 1014 10 16 N/A
10:53 am 10:53 Mostly Sunny 83 28.3 72 22.2 70 70 SW 8 13 29.92 1013 10 16 N/A
11:53 am 11:53 Mostly Cloudy 84 28.9 74 23.3 72 72 VRB 6 9 29.92 1013 10 16 N/A
12:53 pm 12:53 Mostly Sunny 87 30.6 75 23.9 67 67 SW 9 15 29.92 1013 10 16 N/A
1:53 pm 13:53 Partly Cloudy 90 32.2 76 24.4 63 63 VRB 7 11 29.91 1013 10 16 N/A
2:53 pm 14:53 Partly Cloudy 90 32.2 75 23.9 62 62 SW 10 17 29.89 1012 10 16 N/A
3:53 pm 15:53 Partly Cloudy 91 32.8 75 23.9 59 59 SW 8 13 29.88 1012 10 16 N/A
4:53 pm 16:53 Mostly Sunny 89 31.7 73 22.8 59 59 SW 10 17 29.88 1012 10 16 N/A
5:53 pm 17:53 Sunny 86 30 73 22.8 65 65 SW 5 7 29.89 1012 10 16 N/A
6:53 pm 18:53 Sunny 85 29.4 73 22.8 68 68 VRB 3 6 29.89 1012 10 16 N/A
7:20 pm 19:20 Partly Cloudy with Thunderstorms 81 27.2 75 23.9 82 82 SSW 5 7 29.85 1011 10 16 N/A
7:35 pm 19:35 Partly Cloudy with Nearby Thunderstorms 84 28.9 73 22.8 70 70 VRB 3 6 29.85 1011 9 14 N/A
7:53 pm 19:53 Partly Cloudy with Nearby Thunderstorms 81 27.2 74 23.3 79 79 S 5 7 29.84 1011 7 11 N/A
8:11 pm 20:11 Partly Cloudy with Light Rain 82 27.8 73 22.8 74 74 VRB 7 11 29.80 1009 9 14 N/A
8:53 pm 20:53 Sunny 77 25 71 21.7 82 82 WSW 10 17 29.91 1013 10 16 0.01 0.25
9:40 pm 21:40 Clear with Nearby Thunderstorms 76 24.4 68 20 77 77 VRB 7 11 29.91 1013 10 16 N/A
9:53 pm 21:53 Mostly Clear with Nearby Thunderstorms 76 24.4 68 20 77 77 VRB 7 11 29.92 1013 10 16 N/A
10:20 pm 22:20 Mostly Clear with Thunderstorms 73 22.8 70 21.1 90 90 NW 10 17 29.97 1015 10 16 0.03 0.76
10:35 pm 22:35 Mostly Clear with Nearby Thunderstorms 72 22.2 70 21.1 94 94 W 3 6 29.94 1014 7 11 0.05 1.27
10:53 pm 22:53 Mostly Clear with Nearby Thunderstorms 72 22.2 70 21.1 94 94 VRB 7 11 29.91 1013 9 14 0.06 1.52
11:06 pm 23:06 Mostly Clear with Light Rain 72 22.2 70 21.1 94 94 VRB 5 7 29.91 1013 7 11 0.01 0.25
11:53 pm 23:53 Clear 74 23.3 70 21.1 88 88 VRB 3 6 29.87 1011 10 16 0.02 0.51

Powered by AerisWeather